(291555) = 2006 EE73

Discovered at Mount Lemmon on 2006-03-04 by Mt. Lemmon Survey.

Orbit

Orbit type: Main Belt

Note: WebGL enabled browser required.

epoch2023-02-25.0
epoch JD2460000.5
perihelion date2019-10-22.52742
perihelion JD2458779.02742
argument of perihelion (°)289.03900
ascending node (°)13.25347
inclination (°)13.21917
eccentricity0.1061446
perihelion distance (AU)2.2975916
Tisserand w.r.t. Jupiter3.4
ΔV w.r.t. Earth (km/sec)10.3
semimajor axis (AU)2.5704288
mean anomaly (°)292.13204
mean daily motion (°/day)0.23916380
aphelion distance (AU)2.843
period (years)4.12
P-vector [x]0.52849864
P-vector [y]-0.66722161
P-vector [z]-0.52488524
Q-vector [x]0.84731380
Q-vector [y]0.45276437
Q-vector [z]0.27760357
absolute magnitude16.72
phase slope0.15
uncertainty0
referenceMPO 745323
observations used214
oppositions13
arc length (days)10094
first opposition used1995
last opposition used2023
residual rms (arc-secs)0.74
perturbers coarse indicatorM-v
perturbers precise indicator003Ek
first observation date used1995-10-28.0
last observation date used2023-06-17.0
computer nameMPCLINUX
JD of orbit computation2456760.722186
perihelion JD uncertainty (days)3.4530E-04
argument of perihelion uncertainty (°)8.2091E-05
ascending node uncertainty (°)3.0680E-05
inclination uncertainty (°)1.6851E-05
eccentricity uncertainty 1.1863E-07
perihelion distance uncertainty (AU)3.1349E-07
Minimum Orbit Intersection Distances (in AU)
for orbit epoch: 2460000.5, reference: E2023-M35
Mercury1.85616
Venus1.58443
Earth1.32185
Mars0.94545
Jupiter2.43106
Saturn6.36443
Uranus15.6885
Neptune27.2978

Observations

221 total observations over interval: 1995 10 28.18227 – 2023 06 17.325183
These data are available for download (format description).

Date (UT) J2000 RA J2000 Dec Magn Location Ref
1995 10 28.18227 00 26 59.11 +04 48 56.4   691 – Steward Observatory, Kitt Peak-Spacewatch MPS 254029
1995 10 28.20466 00 26 58.04 +04 48 57.3   691 – Steward Observatory, Kitt Peak-Spacewatch MPS 254029
1995 10 28.22578 00 26 57.01 +04 48 58.3 20.4 V 691 – Steward Observatory, Kitt Peak-Spacewatch MPS 254029
2002 04 04.37768 13 06 26.95 -08 28 25.9 20.5   644 – Palomar Mountain/NEAT MPS 254029
2002 04 04.38802 13 06 26.32 -08 28 25.4 20.2   644 – Palomar Mountain/NEAT MPS 254029
2002 04 04.39855 13 06 25.59 -08 28 25.0 20.5   644 – Palomar Mountain/NEAT MPS 254029
2002 04 14.26726 12 56 01.27 -08 19 11.4 19.4   704 – Lincoln Laboratory ETS, New Mexico MPS 254029
2002 04 14.28132 12 56 00.35 -08 19 11.1 19.7   704 – Lincoln Laboratory ETS, New Mexico MPS 254029
2002 04 14.29538 12 55 59.45 -08 19 10.2 20.4   704 – Lincoln Laboratory ETS, New Mexico MPS 254029
2002 04 14.30945 12 55 58.54 -08 19 08.8 19.7   704 – Lincoln Laboratory ETS, New Mexico MPS 254029
2003 08 23.33106 23 19 24.28 -19 20 18.5 18.6   644 – Palomar Mountain/NEAT MPS 253569
2003 08 23.36128 23 19 22.43 -19 20 21.3 18.6   644 – Palomar Mountain/NEAT MPS 253569
2003 08 23.40324 23 19 19.89 -19 20 25.5 18.5   644 – Palomar Mountain/NEAT MPS 253569
2006 03 04.41066 12 44 43.18 +00 08 36.6 20.7 V G96 – Mt. Lemmon Survey MPS 252738
2006 03 04.41740 12 44 42.86 +00 08 36.8 20.5 V G96 – Mt. Lemmon Survey MPS 252738
2006 03 04.42436 12 44 42.57 +00 08 37.2 20.3 V G96 – Mt. Lemmon Survey MPS 252738
2006 03 04.43105 12 44 42.25 +00 08 38.1 18.8 V G96 – Mt. Lemmon Survey MPS 252738
2006 03 25.19181 12 25 38.78 +00 38 58.4 20.4 V 691 – Steward Observatory, Kitt Peak-Spacewatch MPS 252738
2006 03 25.20907 12 25 37.68 +00 39 00.1 20.3 V 691 – Steward Observatory, Kitt Peak-Spacewatch MPS 252738
2006 03 25.22631 12 25 36.57 +00 39 01.8 20.5 V 691 – Steward Observatory, Kitt Peak-Spacewatch MPS 252738
2006 04 19.21788 12 01 32.19 +01 00 12.3 20.5 V G96 – Mt. Lemmon Survey MPS 252738
2006 04 19.22906 12 01 31.69 +01 00 12.4 20.9 V G96 – Mt. Lemmon Survey MPS 252738
2006 04 19.24028 12 01 31.11 +01 00 11.9 20.4 V G96 – Mt. Lemmon Survey MPS 252738
2006 04 19.25142 12 01 30.57 +01 00 11.7 20.6 V G96 – Mt. Lemmon Survey MPS 252738
2006 04 19.30868 12 01 27.73 +01 00 10.9 20.0 V G96 – Mt. Lemmon Survey MPS 252738
2006 04 19.31942 12 01 27.22 +01 00 11.0 19.7 V G96 – Mt. Lemmon Survey MPS 252738
2006 04 19.32973 12 01 26.72 +01 00 11.3 20.0 V G96 – Mt. Lemmon Survey MPS 252738
2006 04 19.33993 12 01 26.22 +01 00 10.5 20.3 V G96 – Mt. Lemmon Survey MPS 252738
2006 05 03.25442 11 52 44.32 +00 44 26.8 20.8 V G96 – Mt. Lemmon Survey MPS 252738
2006 05 03.25961 11 52 44.14 +00 44 25.9 21.1 V G96 – Mt. Lemmon Survey MPS 252738
2006 05 03.26481 11 52 44.04 +00 44 25.2 21.1 V G96 – Mt. Lemmon Survey MPS 252738
2006 05 03.27002 11 52 43.82 +00 44 24.7 21.2 V G96 – Mt. Lemmon Survey MPS 252738
2007 08 11.48412 22 10 30.43 -31 11 15.6 19.2 V E12 – Siding Spring Survey MPS 253569
2007 08 11.49529 22 10 29.64 -31 11 18.0 20.0 V E12 – Siding Spring Survey MPS 253569
2007 08 11.50633 22 10 28.92 -31 11 18.1 19.4 V E12 – Siding Spring Survey MPS 253569
2007 08 11.51741 22 10 28.16 -31 11 18.9 20.1 V E12 – Siding Spring Survey MPS 253569
2010 02 15.588824 12 11 03.786 +08 04 05.55 21.43 g F51 – Pan-STARRS 1, Haleakala MPS 316752
2010 02 15.597960 12 11 03.426 +08 04 06.88 21.43 g F51 – Pan-STARRS 1, Haleakala MPS 316752
2010 02 20.555598 12 07 48.321 +08 15 10.74 21.09 r F51 – Pan-STARRS 1, Haleakala MPS 316752
2010 02 20.566318 12 07 47.828 +08 15 12.27 21.14 r F51 – Pan-STARRS 1, Haleakala MPS 316752
2010 02 24.593134 12 04 44.383 +08 25 04.46 20.68 i F51 – Pan-STARRS 1, Haleakala MPS 316752
2010 02 24.601543 12 04 43.971 +08 25 05.64 20.59 i F51 – Pan-STARRS 1, Haleakala MPS 316752
2010 03 12.493846 11 49 57.676 +09 04 52.42 20.52 r F51 – Pan-STARRS 1, Haleakala MPS 337355
2010 03 12.502658 11 49 57.130 +09 04 53.92 20.71 r F51 – Pan-STARRS 1, Haleakala MPS 337355
2010 03 16.32446 11 46 01.41 +09 12 59.4 20.2 V G96 – Mt. Lemmon Survey MPS 317950
2010 03 16.33043 11 46 01.05 +09 12 59.9 20.4 V G96 – Mt. Lemmon Survey MPS 317950
2010 03 16.33639 11 46 00.66 +09 13 00.9 20.4 V G96 – Mt. Lemmon Survey MPS 317950
2010 03 16.34234 11 46 00.30 +09 13 01.6 20.2 V G96 – Mt. Lemmon Survey MPS 317950
2010 03 17.17585 11 45 08.81 +09 14 38.6 20.4 V 691 – Steward Observatory, Kitt Peak-Spacewatch MPS 317950
2010 03 17.19352 11 45 07.71 +09 14 40.8 20.3 V 691 – Steward Observatory, Kitt Peak-Spacewatch MPS 317950
2010 03 17.21116 11 45 06.56 +09 14 42.6 20.4 V 691 – Steward Observatory, Kitt Peak-Spacewatch MPS 317950
2010 04 14.17937 11 19 49.65 +09 20 56.2 20.8 V G96 – Mt. Lemmon Survey MPS 322241
2010 04 14.18581 11 19 49.40 +09 20 55.6 20.2 V G96 – Mt. Lemmon Survey MPS 322241
2010 04 14.19226 11 19 49.11 +09 20 55.0 20.5 V G96 – Mt. Lemmon Survey MPS 322241
2010 04 14.19874 11 19 48.86 +09 20 54.2 20.4 V G96 – Mt. Lemmon Survey MPS 322241
2014 02 11.45834 11 28 56.11 +15 56 26.2 20.1 V G96 – Mt. Lemmon Survey MPS 501552
2014 02 11.46342 11 28 55.85 +15 56 26.8 20.6 V G96 – Mt. Lemmon Survey MPS 501552
2014 02 11.46850 11 28 55.60 +15 56 28.1 20.6 V G96 – Mt. Lemmon Survey MPS 501552
2014 02 11.47358 11 28 55.40 +15 56 28.6 20.3 V G96 – Mt. Lemmon Survey MPS 501552
2014 02 24.39007 11 17 32.483 +16 41 08.07 20.5 w F51 – Pan-STARRS 1, Haleakala MPS 503804
2014 02 24.41511 11 17 30.954 +16 41 12.86 20.6 w F51 – Pan-STARRS 1, Haleakala MPS 503804
2014 02 24.42764 11 17 30.194 +16 41 15.26 20.6 w F51 – Pan-STARRS 1, Haleakala MPS 503804
2014 03 12.18076 11 01 15.83 +17 18 25.8 20.4 V G96 – Mt. Lemmon Survey MPS 506215
2014 03 12.18382 11 01 15.63 +17 18 26.2 19.9 V G96 – Mt. Lemmon Survey MPS 506215
2014 03 12.18689 11 01 15.44 +17 18 26.6 19.9 V G96 – Mt. Lemmon Survey MPS 506215
2014 03 12.18995 11 01 15.27 +17 18 27.2 20.3 V G96 – Mt. Lemmon Survey MPS 506215
2014 04 06.16206 10 39 55.25 +17 00 13.6 20.9 V G96 – Mt. Lemmon Survey MPS 510939
2014 04 06.16731 10 39 55.09 +17 00 13.1 20.9 V G96 – Mt. Lemmon Survey MPS 510939
2014 04 06.17256 10 39 54.94 +17 00 11.4 20.6 V G96 – Mt. Lemmon Survey MPS 510939
2015 05 24.57673 19 36 20.428 -41 37 23.94 20.1 w F51 – Pan-STARRS 1, Haleakala MPS 609674
2015 05 24.58469 19 36 20.454 -41 37 27.79 20.2 w F51 – Pan-STARRS 1, Haleakala MPS 609674
2015 05 24.59267 19 36 20.454 -41 37 31.48 20.1 w F51 – Pan-STARRS 1, Haleakala MPS 609674
2015 05 24.60066 19 36 20.462 -41 37 35.29 20.0 w F51 – Pan-STARRS 1, Haleakala MPS 609674
2015 05 26.57066 19 36 23.588 -41 53 19.26 20.0 w F51 – Pan-STARRS 1, Haleakala MPS 609674
2015 05 26.57868 19 36 23.541 -41 53 23.26 20.0 w F51 – Pan-STARRS 1, Haleakala MPS 609674
2015 05 26.58664 19 36 23.528 -41 53 27.12 20.1 w F51 – Pan-STARRS 1, Haleakala MPS 609674
2015 05 26.59461 19 36 23.497 -41 53 31.03 20.0 w F51 – Pan-STARRS 1, Haleakala MPS 609674
2015 06 18.50966 19 25 46.778 -44 45 27.26 19.8 w F51 – Pan-STARRS 1, Haleakala MPS 612435
2015 06 18.51763 19 25 46.303 -44 45 30.02 19.9 w F51 – Pan-STARRS 1, Haleakala MPS 612435
2015 06 18.52619 19 25 45.839 -44 45 33.22 19.7 w F51 – Pan-STARRS 1, Haleakala MPS 612435
2016 10 13.37189 04 02 46.77 +32 15 11.9 20.9 V G96 – Mt. Lemmon Survey MPS 735895
2016 10 13.37734 04 02 46.57 +32 15 13.4 20.4 V G96 – Mt. Lemmon Survey MPS 735895
2016 10 13.38117 04 02 46.43 +32 15 14.8 21.0 V G96 – Mt. Lemmon Survey MPS 735895
2016 10 13.38645 04 02 46.27 +32 15 16.9 21.0 V G96 – Mt. Lemmon Survey MPS 735895
2016 11 08.40339 03 39 43.84 +33 55 07.5 20.6 V G96 – Mt. Lemmon Survey MPS 744687
2016 11 08.40925 03 39 43.41 +33 55 07.8 20.3 V G96 – Mt. Lemmon Survey MPS 744687
2016 11 08.41509 03 39 43.00 +33 55 08.9 20.3 V G96 – Mt. Lemmon Survey MPS 744687
2016 11 08.42099 03 39 42.57 +33 55 10.3 20.3 V G96 – Mt. Lemmon Survey MPS 744687
2016 11 19.33246 03 26 35.46 +33 59 29.6 20.5 V G96 – Mt. Lemmon Survey MPS 747023
2016 11 19.35360 03 26 33.90 +33 59 28.5 20.4 V G96 – Mt. Lemmon Survey MPS 747023
2016 11 19.36203 03 26 33.24 +33 59 28.0 20.6 V G96 – Mt. Lemmon Survey MPS 747023
2016 11 19.37088 03 26 32.64 +33 59 27.2 20.1 V G96 – Mt. Lemmon Survey MPS 747023
